[[{"header":{"parameterUnit":"m.s-1","parameterCategory":1,"la1":30.2991,"la2":30.254,"lo1":-89.0895,"lo2":-89.0444,"dy":0.0017,"dx":0.0017,"nx":28,"ny":28,"refTime":"2026-02-02T03:00:00:Z","depth":0,"parameterNumber":2,"parameterNumberName":"U-component_of_WINDS"},"data":[0,0,0,0,0,0,0,0,0,0,0,0,0,0,0,0,0,0,0,0,0,0,0,0,0,0,0,0,0,0,0,0,0,0,0,0,0,0,0,0,0,0,0,0,0,0,0,0,0,0,0,0,0,0,0,0,0,0,1.5545,1.5547,0,1.5688,1.5689,1.5691,1.5727,1.5726,1.5725,1.5724,1.5873,1.5878,1.5883,0,0,0,0,0,0,0,0,0,0,0,0,0,1.5309,1.5313,1.5545,1.5547,1.5549,1.5688,1.5689,1.5691,1.5727,1.5726,1.5725,1.5724,1.5872,1.5877,1.5883,0,0,0,0,0,0,0,0,0,0,0,0,0,1.5428,1.5315,1.5545,1.5583,1.5588,1.5687,1.569,1.5692,1.5727,1.5726,1.5724,1.5723,1.587,1.5877,1.5884,1.5956,0,0,1.5906,1.5909,0,0,0,0,0,0,0,0,1.5421,1.5436,1.5576,1.5581,1.5586,1.5688,1.5661,1.5781,1.5727,1.5674,1.5724,1.5722,1.5813,1.5825,1.5855,1.5963,1.597,1.5907,1.5911,1.5914,1.5916,0,0,0,0,0,0,0,1.5413,1.543,1.5602,1.5578,1.5584,1.5595,1.561,1.5684,1.575,1.5679,1.5682,1.5698,1.5815,1.5847,1.5858,1.5972,1.5906,1.5913,1.5917,1.592,1.6151,1.6152,0,0,0,0,0,0,1.5397,1.5423,1.5597,1.5606,1.5498,1.56,1.5617,1.5657,1.5749,1.5762,1.5699,1.5699,1.5836,1.585,1.5864,1.5957,1.5914,1.5921,1.5925,1.6149,1.6151,1.6153,0,0,0,0,0,0,1.5392,1.5412,1.5592,1.5516,1.5539,1.5606,1.565,1.566,1.5692,1.5764,1.5777,1.5719,1.5835,1.5853,1.5934,1.5962,1.5924,1.5931,1.6147,1.615,1.6152,1.6142,0,0,0,0,0,0,1.5385,1.541,1.5437,1.5516,1.5543,1.5657,1.5651,1.5664,1.5704,1.5706,1.5786,1.5798,1.5836,1.5922,1.5941,1.5972,1.5936,1.6145,1.6148,1.6151,1.614,1.6144,1.6147,0,0,0,0,0,1.5376,1.5428,1.5438,1.5459,1.5578,1.5659,1.5674,1.5715,1.5706,1.5735,1.5782,1.5796,1.5956,1.593,1.5951,1.5985,1.6143,1.6147,1.6151,1.6138,1.6143,1.6147,0,0,0,0,0,0,1.5351,1.5439,1.5451,1.553,1.5586,1.5664,1.5701,1.5718,1.5779,1.5778,1.5827,1.5845,1.5923,1.5962,1.5932,1.6061,1.605,1.6058,1.6033,1.6038,1.6042,1.6031,1.5942,0,0,0,0,0,1.5355,1.5412,1.5486,1.5549,1.5577,1.5634,1.5671,1.5697,1.5759,1.5783,1.5836,1.5896,1.596,1.6001,1.6064,1.6146,1.6165,1.6179,1.6183,1.6185,1.6192,1.6242,1.625,1.6166,1.6166,1.6166,0,0,1.5363,1.5418,1.5451,1.5545,1.5592,1.5652,1.5654,1.5717,1.5762,1.5793,1.5872,1.5913,1.5983,1.6065,1.6104,1.61,1.622,1.6191,1.6192,1.6198,1.6247,1.6254,1.6261,1.6169,1.6168,1.6168,0,0,1.5409,1.5455,1.5513,1.5561,1.5632,1.5671,1.5685,1.5761,1.5789,1.5869,1.5894,1.595,1.6059,1.6109,1.6148,1.6216,1.6233,1.6235,1.6255,1.6302,1.6309,1.6315,1.6341,1.635,1.6242,1.6242,1.6242,0,1.541,1.55,1.5541,1.5604,1.5645,1.5676,1.5737,1.5781,1.587,1.5899,1.5893,1.6032,1.6081,1.6177,1.6194,1.6224,1.6244,1.6226,1.6304,1.6311,1.6317,1.6343,1.6352,1.6242,1.6242,1.6242,1.6242,0,1.5499,1.5561,1.56,1.5685,1.5731,1.5792,1.5845,1.5887,1.591,1.595,1.6033,1.6094,1.6171,1.6195,1.6218,1.6295,1.6291,1.6294,1.6283,1.6324,1.6349,1.6359,1.6242,1.6242,1.6242,1.6242,0,0,1.5531,1.564,1.5653,1.5693,1.5776,1.5826,1.589,1.5964,1.6001,1.6061,1.6118,1.6211,1.6215,1.626,1.6289,1.6331,1.6384,1.633,1.6332,1.6339,1.6475,1.6473,1.6483,1.6395,1.6397,1.6399,1.647,0,1.5588,1.5702,1.5743,1.5837,1.5897,1.5928,1.5984,1.6042,1.6082,1.614,1.6184,1.6249,1.6249,1.6277,1.6319,1.6368,1.6412,1.6363,1.645,1.6453,1.6432,1.6496,1.6494,1.6558,1.648,1.6481,1.6482,0,1.5669,1.5731,1.5831,1.5909,1.5935,1.5985,1.6058,1.6113,1.618,1.6206,1.6258,1.6285,1.6356,1.6341,1.6441,1.6407,1.6445,1.6475,1.6478,1.6489,1.647,1.651,1.6579,1.6589,1.6498,1.6497,1.6496,0,1.5685,1.5793,1.5868,1.5901,1.5993,1.6028,1.6068,1.6134,1.6177,1.6242,1.6271,1.6343,1.6383,1.644,1.6487,1.6471,1.6583,1.6571,1.6609,1.6608,1.6631,1.6629,1.6709,1.6654,1.6654,1.6653,1.6653,0,1.5744,1.5805,1.5877,1.5923,1.5993,1.604,1.6109,1.6151,1.621,1.6267,1.6299,1.6351,1.641,1.6471,1.6509,1.6587,1.6605,1.6629,1.6639,1.6627,1.6624,1.6653,1.6651,1.6656,1.6656,1.6655,1.6655,0,1.5773,1.5823,1.5908,1.5988,1.601,1.6058,1.6128,1.6176,1.6217,1.6289,1.6308,1.6374,1.6449,1.6501,1.6596,1.6622,1.6707,1.6715,1.6684,1.6689,1.6724,1.672,1.6826,1.6843,1.6775,1.6775,1.6776,0,1.5808,1.5856,1.5942,1.5982,1.6022,1.6086,1.613,1.618,1.6226,1.6308,1.6346,1.6422,1.6485,1.6603,1.6661,1.6735,1.6746,1.6778,1.6757,1.6745,1.6749,1.6746,1.6752,1.6781,1.6782,1.6782,1.6782,0,1.5866,1.5889,1.5951,1.6024,1.6076,1.6136,1.6196,1.6227,1.6288,1.6338,1.6414,1.6463,1.6561,1.6638,1.6718,1.6761,1.6783,1.6788,1.6801,1.679,1.6771,1.6784,1.6694,1.6786,1.6785,1.6785,1.6785,1.6785,1.59,1.5945,1.6013,1.6083,1.6133,1.6189,1.6239,1.6287,1.6351,1.6434,1.646,1.6539,1.6609,1.6719,1.6764,1.6828,1.6827,1.6845,1.685,1.6854,1.6854,1.676,1.6843,1.6843,1.6843,1.6843,1.6843,0,1.5961,1.6007,1.607,1.6154,1.6209,1.6224,1.6292,1.6338,1.6407,1.647,1.6532,1.6621,1.6696,1.676,1.6839,1.6878,1.689,1.6897,1.6895,1.6906,1.685,1.6832,1.6886,1.6886,1.6886,1.6886,1.6886,1.6886,1.5999,1.6076,1.6108,1.6212,1.6258,1.6336,1.6374,1.6427,1.6477,1.6575,1.6637,1.6678,1.6743,1.6826,1.6897,1.6914,1.6942,1.6947,1.6967,1.6914,1.6909,1.6904,1.6887,1.6952,1.6952,1.7017,1.7017,1.7018]},{"header":{"parameterUnit":"m.s-1","parameterCategory":1,"la1":30.2991,"la2":30.254,"lo1":-89.0895,"lo2":-89.0444,"dy":0.0017,"dx":0.0017,"nx":28,"ny":28,"refTime":"2026-02-02T03:00:00:Z","depth":0,"parameterNumber":3,"parameterNumberName":"V-component_of_WINDS"},"data":[0,0,0,0,0,0,0,0,0,0,0,0,0,0,0,0,0,0,0,0,0,0,0,0,0,0,0,0,0,0,0,0,0,0,0,0,0,0,0,0,0,0,0,0,0,0,0,0,0,0,0,0,0,0,0,0,0,0,3.44,3.4403,0,3.4627,3.4629,3.4632,3.4683,3.4682,3.468,3.4679,3.4915,3.4922,3.493,0,0,0,0,0,0,0,0,0,0,0,0,0,3.4018,3.4025,3.44,3.4403,3.4406,3.4626,3.463,3.4633,3.4684,3.4682,3.468,3.4678,3.4912,3.4921,3.4931,0,0,0,0,0,0,0,0,0,0,0,0,0,3.4208,3.4027,3.44,3.4458,3.4465,3.4626,3.463,3.4634,3.4684,3.4682,3.4679,3.4677,3.4909,3.4921,3.4932,3.5052,0,0,3.4968,3.4973,0,0,0,0,0,0,0,0,3.4197,3.4222,3.4446,3.4454,3.4463,3.4624,3.4582,3.4774,3.4685,3.4601,3.4679,3.4676,3.482,3.4839,3.4887,3.5063,3.5073,3.4969,3.4976,3.4981,3.4984,0,0,0,0,0,0,0,3.4184,3.4213,3.449,3.445,3.446,3.4475,3.4499,3.4618,3.4722,3.4608,3.4613,3.4638,3.4824,3.4876,3.4893,3.5077,3.4968,3.4979,3.4986,3.4991,3.5369,3.5372,0,0,0,0,0,0,3.416,3.4202,3.4483,3.4497,3.4321,3.4484,3.4511,3.4575,3.472,3.474,3.464,3.464,3.4857,3.4879,3.4902,3.5056,3.4981,3.4992,3.4998,3.5366,3.537,3.5373,0,0,0,0,0,0,3.4152,3.4185,3.4474,3.4351,3.4388,3.4493,3.4564,3.4581,3.4632,3.4745,3.4764,3.4673,3.4856,3.4885,3.5015,3.5065,3.4997,3.5008,3.5362,3.5367,3.5371,3.5363,0,0,0,0,0,0,3.4141,3.4181,3.4226,3.4351,3.4395,3.4582,3.4567,3.4587,3.4652,3.4653,3.4781,3.48,3.4856,3.4998,3.5027,3.508,3.5017,3.5358,3.5364,3.537,3.5359,3.5366,3.5373,0,0,0,0,0,3.4127,3.4214,3.4228,3.4262,3.4453,3.4584,3.4609,3.4672,3.4655,3.4703,3.4776,3.4796,3.5054,3.5011,3.5044,3.5101,3.5356,3.5363,3.5369,3.5356,3.5365,3.5373,0,0,0,0,0,0,3.4093,3.4232,3.4248,3.4379,3.4469,3.4592,3.4654,3.4678,3.4776,3.4774,3.4849,3.4877,3.5004,3.5065,3.5014,3.5228,3.5205,3.5218,3.5183,3.5193,3.5199,3.5183,3.5026,0,0,0,0,0,3.4101,3.4194,3.4311,3.4415,3.4459,3.4549,3.4608,3.4649,3.4746,3.4785,3.4867,3.4962,3.5066,3.5132,3.5233,3.5368,3.5399,3.5424,3.543,3.5435,3.5447,3.5529,3.5543,3.5395,3.5395,3.5395,0,0,3.4118,3.4205,3.4259,3.441,3.4485,3.4583,3.4581,3.4683,3.4758,3.4801,3.493,3.4994,3.5105,3.5239,3.5303,3.5294,3.5495,3.5444,3.5447,3.5457,3.5537,3.5551,3.5563,3.54,3.5399,3.5398,0,0,3.4199,3.4273,3.437,3.4445,3.4559,3.4618,3.4642,3.4762,3.4807,3.4937,3.4973,3.5063,3.5238,3.5318,3.5381,3.5497,3.552,3.5527,3.5564,3.5642,3.5654,3.5664,3.571,3.5725,3.5538,3.5538,3.5538,0,3.4206,3.4353,3.4417,3.4519,3.4586,3.463,3.4731,3.4801,3.4942,3.4989,3.4977,3.5201,3.5278,3.5435,3.5463,3.5511,3.5544,3.5514,3.5646,3.5658,3.5669,3.5714,3.573,3.5539,3.5539,3.5539,3.5539,0,3.4359,3.4461,3.4526,3.4662,3.4736,3.4837,3.4918,3.4986,3.5021,3.5083,3.5218,3.5313,3.5436,3.5475,3.5509,3.5638,3.563,3.5631,3.561,3.5682,3.5726,3.5743,3.5539,3.5539,3.5539,3.5539,0,0,3.4426,3.4597,3.462,3.4684,3.4814,3.4895,3.5,3.512,3.5179,3.5275,3.5368,3.5516,3.552,3.5592,3.5636,3.5704,3.5796,3.5698,3.5702,3.5717,3.5949,3.595,3.5968,3.5811,3.5815,3.5817,3.5941,0,3.4526,3.4713,3.4775,3.4932,3.5029,3.5074,3.5166,3.5257,3.5318,3.5412,3.548,3.5586,3.558,3.5625,3.5694,3.577,3.5844,3.5761,3.5902,3.5906,3.5876,3.599,3.599,3.6102,3.5958,3.5961,3.5963,0,3.4668,3.4768,3.4934,3.5056,3.5099,3.5181,3.5298,3.5386,3.5492,3.5532,3.5614,3.5654,3.5769,3.5739,3.5901,3.5844,3.5905,3.5952,3.5958,3.5976,3.5941,3.6015,3.6139,3.6157,3.5989,3.5987,3.5985,0,3.4705,3.4881,3.5004,3.5057,3.5201,3.5258,3.5321,3.5425,3.5495,3.5598,3.5645,3.5759,3.5823,3.5913,3.5985,3.5956,3.6142,3.6117,3.6183,3.6181,3.6222,3.6219,3.6361,3.6255,3.6255,3.6254,3.6254,0,3.4813,3.4914,3.5024,3.51,3.5216,3.5287,3.5401,3.5467,3.556,3.5652,3.5697,3.5783,3.587,3.5969,3.6026,3.6154,3.6182,3.622,3.6235,3.6219,3.6214,3.6262,3.6258,3.6259,3.6258,3.6257,3.6256,0,3.4875,3.4951,3.509,3.5216,3.525,3.5331,3.544,3.5518,3.5581,3.5698,3.573,3.583,3.595,3.6029,3.6181,3.6219,3.6361,3.6371,3.6325,3.6333,3.6395,3.639,3.6576,3.6606,3.6475,3.6476,3.6477,0,3.494,3.502,3.5154,3.5219,3.5283,3.5386,3.5458,3.5532,3.5605,3.5735,3.5798,3.592,3.6022,3.6211,3.6299,3.6417,3.6434,3.6491,3.6452,3.6435,3.6441,3.6437,3.6447,3.6498,3.6499,3.65,3.6501,0,3.505,3.5085,3.5185,3.5302,3.5386,3.5481,3.5576,3.5627,3.5719,3.58,3.5922,3.6001,3.6157,3.628,3.6407,3.6475,3.6506,3.6512,3.6535,3.652,3.6492,3.6513,3.6346,3.6508,3.6507,3.6507,3.6507,3.6506,3.5119,3.5193,3.5301,3.5413,3.5493,3.5582,3.5663,3.5737,3.584,3.5973,3.601,3.6139,3.6248,3.6422,3.6492,3.6596,3.6591,3.6621,3.663,3.6638,3.6641,3.6472,3.6619,3.6619,3.6619,3.6619,3.6619,0,3.5234,3.5306,3.5409,3.5542,3.5631,3.565,3.5758,3.5833,3.5945,3.6043,3.6143,3.6286,3.6406,3.6505,3.6629,3.6694,3.6712,3.6725,3.6723,3.6739,3.6636,3.6606,3.6709,3.6709,3.6709,3.6709,3.6709,3.6709,3.5305,3.5434,3.5482,3.5652,3.5724,3.585,3.5911,3.5995,3.6074,3.6232,3.6331,3.6394,3.6495,3.6628,3.674,3.6767,3.6812,3.6823,3.6853,3.6756,3.6746,3.6736,3.6709,3.6832,3.6832,3.6949,3.695,3.6951]}]]